Regional Weather Roundup
Issued by NWS

Home | Current Version | Previous Version | Graphics & Text | Print | Product List | Glossary Off
Versions: 1 2 3 4 5 6 7 8 9 10 11 12 13 14 15 16 17 18 19 20 21 22 23 24 25 26 27 28 29 30 31 32 33 34 35 36 37 38 39 40 41 42 43 44 45 46 47 48 49 50

000
ASUS43 KDTX 021310
RWRMI
MICHIGAN HOURLY REGIONAL WEATHER ROUNDUP
NATIONAL WEATHER SERVICE DETROIT/PONTIAC MI
900 AM EDT TUE SEP 02 2014

NOTE: "FAIR" INDICATES FEW OR NO CLOUDS BELOW 12,000 FEET WITH NO
SIGNIFICANT WEATHER AND/OR OBSTRUCTION TO VISIBILITY.

MIZ047>049-052>055-059>063-066>070-074>076-081>083-021400-
SOUTHEAST LOWER MICHIGAN

CITY           SKY/WX    TMP DP  RH WIND       PRES   REMARKS
ADRIAN         CLOUDY    69  67  93 W6        29.89F
ALMA           PTSUNNY   66  64  94 SW3       29.87S
ANN ARBOR      CLOUDY    69  65  86 SW5       29.88F
BAD AXE        CLOUDY    68  68 100 W5        29.86R
CARO           CLOUDY    69  67  94 W7        29.87R
DETROIT CITY   CLOUDY    72  66  81 SW9       29.89R
DETROIT        CLOUDY    70  66  87 SW8       29.88F
FLINT          CLOUDY    71  66  84 W7        29.87S
GROSSE ILE     LGT RAIN  70  66  88 S3        29.88F
HILLSDALE      CLOUDY    70  68  94 SW3       29.89F
HOWELL         CLOUDY    68  67  96 SW5       29.88S

CITY           SKY/WX    TMP DP  RH WIND       PRES   REMARKS
JACKSON        CLOUDY    70  66  87 W5        29.88F
LAMBERTVILLE   CLOUDY    70  66  88 S5        29.89F
LANSING        CLOUDY    68  65  90 W6        29.89R
LAPEER         CLOUDY    69  65  90 W6        29.87S
MASON          CLOUDY    69  66  90 CALM      29.89S
MONROE         CLOUDY    70  66  88 S6        29.88F
MT. CLEMENS    CLOUDY    70  67  90 SW9       29.86F
PONTIAC        CLOUDY    69  66  90 SW7       29.88R
PORT HOPE        N/A     69  66  90 VRB5      29.83R
PORT HURON     DRIZZLE   68  68 100 SW3       29.87S
TRI CITIES     PTSUNNY   67  64  90 SW5       29.87R
TROY           CLOUDY    70  66  88 SW5       29.90S
SAGINAW HB     CLOUDY    68  68 100 W5        29.86R
$$
MIZ043>046-050>051-056>058-064>065-071>073-077>080-021400-
SOUTHWEST LOWER MICHIGAN

CITY           SKY/WX    TMP DP  RH WIND       PRES   REMARKS
BATTLE CREEK   CLOUDY    70  66  87 W3        29.89S
BENTON HARBOR  PTSUNNY   69  67  93 CALM      29.88S
BIG RAPIDS     SUNNY     64  64 100 CALM      29.86S
COLDWATER      CLOUDY    71  68  90 SW7       29.88F
FREMONT        FAIR      65  65  98 CALM      29.86R
HOLLAND        MOSUNNY   70  66  87 CALM      29.89R
GRAND RAPIDS   PTSUNNY   70  68  93 W5        29.88R
IONIA          FAIR      67  66  94 SW5       29.88R
KALAMAZOO      CLOUDY    71  67  87 CALM      29.88S
LUDINGTON      SUNNY     68  65  90 W5        29.86F
MARSHALL       CLOUDY    68  66  93 SW3       29.88S
MOUNT PLEASANT MOSUNNY   65  63  92 W3        29.85S
MUSKEGON       MOSUNNY   70  64  81 NW6       29.86F
SOUTH HAVEN    PTSUNNY   69  68  96 CALM      29.88S
$$
MIZ016>042-021400-
NORTHERN LOWER MICHIGAN

CITY           SKY/WX    TMP DP  RH WIND       PRES   REMARKS
ALPENA         SUNNY     67  62  84 W5        29.82S
BEAVER ISLAND  SUNNY     65  60  85 W7        29.82R
BELLAIRE       PTSUNNY   65  63  92 S5        29.83S
CADILLAC       CLOUDY    61  61 100 SW3       29.87R
CHARLEVOIX     SUNNY     67  64  90 W7        29.85S
FRANKFORT      SUNNY     66  62  86 CALM      29.85S
GAYLORD        CLOUDY    61  60  97 SW8       29.85S
GRAYLING       CLOUDY    62  62 100 W6        29.87R FOG
HARBOR SPRINGS PTSUNNY   67  63  89 CALM      29.82R
HOUGHTON LAKE  CLOUDY    64  61  90 W6        29.87R
MANISTEE       SUNNY     61  57  88 CALM      29.87S
OSCODA         MOSUNNY   66  65  96 W3        29.83S
PELLSTON       SUNNY     66  62  87 CALM      29.83R
ROGERS CITY    SUNNY     66  63  88 SW7       29.82F
TRAVERSE CITY  MOSUNNY   66  61  84 W6        29.84R
$$
MIZ007>008-015-021400-
EASTERN UPPER MICHIGAN

CITY           SKY/WX    TMP DP  RH WIND       PRES   REMARKS
KINROSS        PTSUNNY   61  59  94 NW3       29.81R
MACKINAC ISLAN SUNNY     64  62  93 W7        29.80S
NEWBERRY       MOSUNNY   60  57  89 W10G17    29.79S
S. S. MARIE    PTSUNNY   61  58  90 S3        29.80R
MUNISING         N/A     60  54  80 S7        29.78F
$$
MIZ004>006-011>014-085-021400-
CENTRAL UPPER MICHIGAN

CITY           SKY/WX    TMP DP  RH WIND       PRES   REMARKS
MANISTIQUE     SUNNY     62  57  84 W3        29.81R
ESCANABA       SUNNY     57  54  88 W7        29.83R
MENOMINEE      SUNNY     59  54  82 SW3       29.83S
SAWYER-GWINN   SUNNY     55  52  88 CALM      29.82R
$$
MIZ001>003-009>011-084-021400-
WESTERN UPPER MICHIGAN

CITY           SKY/WX    TMP DP  RH WIND       PRES   REMARKS
IRON MOUNTAIN  PTSUNNY   57  53  86 NW3       29.82S
HOUGHTON       SUNNY     61  52  72 W14       29.78R
COPPER HARBOR    N/A     65  53  65 W6        29.75R
$$

ABBREVIATIONS USED IN REMARKS
   TC - TEMPERATURE IN CELSIUS
  WCI - WIND CHILL INDEX
   HX - HEAT INDEX
  VSB - VISIBILITY



USA.gov is the U.S. government's official web portal to all federal, state and local government web resources and services.